Date,TemperatureHighF,TemperatureAvgF,TemperatureLowF,DewpointHighF,DewpointAvgF,DewpointLowF,HumidityHigh,HumidityAvg,HumidityLow,PressureMaxIn,PressureMinIn,WindSpeedMaxMPH,WindSpeedAvgMPH,GustSpeedMaxMPH,PrecipitationSumIn
2013-3-1,35,33,31,28,26,22,86,75,66,29.94,29.83,25,4,27,0.00
2013-3-2,30,28,25,23,20,16,79,72,63,29.98,29.89,16,4,24,0.00
2013-3-3,28,24,23,18,16,14,76,71,65,30.04,29.94,20,5,24,0.00
2013-3-4,43,30,21,21,15,12,79,57,30,30.17,30.03,23,4,23,0.00
2013-3-5,47,35,27,36,29,20,95,80,49,30.12,29.64,8,1,10,0.29
2013-3-6,34,30,27,32,26,22,96,83,76,30.15,29.63,26,6,30,0.04
2013-3-7,34,32,30,27,26,24,88,79,69,30.31,30.12,24,7,29,0.06
2013-3-8,43,35,29,29,25,21,83,67,53,30.39,30.25,24,4,28,0.06
2013-3-9,60,39,21,34,27,19,94,67,32,30.41,30.27,9,1,16,0.00
2013-3-10,63,46,28,38,32,26,91,61,36,30.33,30.17,14,2,15,0.00
2013-3-11,55,51,47,51,41,29,95,68,46,30.19,29.84,23,4,24,0.39
2013-3-12,53,45,34,51,39,29,96,80,56,30.00,29.71,17,5,23,0.75
2013-3-13,38,33,26,32,25,16,93,73,52,30.19,29.98,31,7,32,0.00
2013-3-14,43,31,23,20,17,15,76,57,35,30.31,30.17,22,6,25,0.00
2013-3-15,58,43,31,37,27,16,69,54,40,30.22,29.89,20,6,24,0.00
2013-3-16,71,52,34,52,43,31,97,73,43,29.89,29.62,32,5,36,0.05
2013-3-17,55,45,34,49,42,33,95,90,79,30.14,29.84,9,1,13,0.18
2013-3-18,34,32,31,33,31,29,100,94,93,30.17,29.92,8,2,11,0.27
2013-3-19,52,41,32,38,23,1,98,58,15,30.05,29.85,42,10,42,0.00
2013-3-20,48,38,28,28,14,5,88,39,22,30.08,29.81,25,7,29,0.00
2013-3-21,30,25,21,27,16,10,89,68,51,30.04,29.79,21,5,25,0.00
2013-3-22,43,29,17,20,14,9,75,55,33,30.12,30.01,19,5,19,0.00
2013-3-23,51,36,24,29,23,17,86,62,40,30.09,29.95,14,2,15,0.00
2013-3-24,38,32,29,31,27,22,94,83,53,29.97,29.57,11,2,13,0.15
2013-3-25,35,31,28,29,26,22,95,81,63,29.83,29.54,28,7,35,0.15
2013-3-26,37,33,31,29,26,24,83,76,66,30.16,29.82,19,5,26,0.01
2013-3-27,36,33,29,28,25,22,84,73,60,30.28,30.15,21,4,22,0.00
2013-3-28,43,37,32,29,25,22,83,63,47,30.31,30.24,15,3,19,0.00
2013-3-29,53,41,25,30,26,22,92,59,34,30.36,30.20,17,3,22,0.00
2013-3-30,31,29,27,26,25,24,90,86,82,30.27,30.25,1,0,1,0.00
2013-3-31,53,50,40,50,46,34,96,86,78,30.10,29.79,13,3,14,0.00